Wind_Speed
13 13 12 12 11 11 11 10 10 9 8 8 7 7 6 6 6 6 6 5 5 5 4 4 4 4 4 4 4 4 3 3 3 2 2 2 3 3 4 4 4 5 5
14 14 13 13 12 12 12 11 11 11 10 9 9 8 8 8 8 7 7 7 6 6 5 5 5 5 5 5 5 5 4 4 4 4 3 3 3 4 4 5 5 5 6
15 15 14 14 14 13 13 13 13 13 12 11 10 10 9 9 9 9 9 8 8 7 7 7 6 6 6 6 6 6 6 6 5 5 5 5 5 5 6 6 6 6 7
17 17 16 16 16 16 15 14 14 14 14 13 12 12 11 11 10 10 10 10 9 9 8 8 8 7 7 7 7 7 7 6 6 6 6 6 6 6 7 7 7 7 8
19 19 19 19 18 18 18 17 16 16 15 15 14 14 13 13 12 12 12 12 11 11 10 10 9 9 8 8 8 7 7 7 7 7 7 7 7 8 8 7 8 8 9
22 21 21 20 20 20 20 19 18 18 17 17 16 16 15 15 14 14 13 13 13 13 12 12 11 11 10 9 9 8 8 8 8 8 8 8 8 8 9 9 9 9 9
24 23 23 23 22 22 22 21 21 20 20 19 18 18 17 17 16 15 15 14 14 13 13 13 12 12 11 11 10 10 10 9 9 9 9 9 9 9 9 10 10 10 10
27 26 25 25 24 24 24 23 23 23 22 21 21 20 19 18 18 17 16 16 15 15 14 14 14 13 13 12 12 11 11 11 10 10 10 10 10 10 11 10 10 11 11
29 28 28 27 26 26 25 25 25 25 24 23 23 22 21 20 19 18 18 17 17 16 16 15 15 14 14 13 13 12 11 11 11 11 11 11 12 12 12 12 12 12 12
31 30 30 29 28 28 28 27 27 26 26 25 25 24 23 22 21 20 19 19 19 18 17 16 15 15 15 14 14 13 13 12 12 12 12 12 12 13 13 13 13 14 14
32 32 31 31 30 30 29 29 29 28 27 26 26 26 25 24 22 21 21 20 20 20 19 18 17 16 16 16 15 15 14 13 13 13 13 13 13 14 14 14 15 15 15
34 33 33 33 33 32 31 31 30 29 28 28 28 27 26 25 24 23 22 22 21 21 20 19 18 18 17 17 17 16 16 15 15 14 15 15 15 15 15 15 16 16 17
34 34 34 34 34 33 32 32 32 31 30 29 28 28 28 27 26 25 24 23 23 23 22 21 20 19 19 19 19 18 18 17 17 16 16 16 17 17 16 16 17 17 18
33 33 34 34 33 32 31 31 32 31 31 30 29 29 29 28 28 27 26 25 25 24 24 23 22 21 21 21 20 20 20 19 19 19 18 18 18 18 18 18 18 19 19
34 34 34 34 34 33 31 30 31 31 32 32 31 30 30 30 29 28 28 27 26 25 25 24 24 23 23 23 22 22 21 21 21 21 20 20 20 20 20 19 19 19 20
34 34 34 34 34 34 33 32 32 32 32 33 32 32 32 31 31 30 29 28 27 27 26 26 25 25 25 24 24 23 23 22 22 22 22 22 21 22 21 21 21 21 21
34 34 34 34 34 35 34 33 32 32 33 33 33 32 32 32 32 31 30 29 28 28 28 27 27 26 26 26 25 25 24 24 24 23 23 24 23 23 23 23 23 23 23
34 34 34 34 35 35 35 33 33 33 34 34 34 33 33 33 31 31 31 30 30 29 29 29 28 27 27 27 27 27 26 25 25 25 25 25 25 25 25 24 24 24 24
34 34 34 35 35 35 35 34 34 34 35 35 34 34 34 34 32 31 32 32 30 31 31 30 29 29 28 28 29 28 27 26 26 26 26 26 26 26 26 26 26 26 26
34 33 34 35 35 35 36 35 35 35 35 35 36 36 36 35 34 33 33 34 32 31 31 32 30 30 29 29 29 29 29 28 28 28 27 27 27 28 28 28 29 29 28
34 33 34 35 35 35 35 35 35 35 35 35 35 36 36 35 34 34 34 35 33 31 31 32 32 31 31 31 32 32 31 30 29 29 29 29 29 29 30 30 30 30 30
34 34 33 33 34 34 34 34 34 35 35 35 36 35 35 36 35 35 35 36 34 33 33 33 33 33 32 32 32 32 32 32 31 31 31 31 30 31 32 32 32 32 32
34 34 34 33 34 34 34 34 35 34 34 34 34 35 35 35 36 36 36 36 35 34 34 34 34 34 33 32 32 32 32 32 32 32 32 33 33 33 32 32 33 34 34
34 34 34 34 34 34 34 35 34 34 33 33 34 34 34 34 36 36 36 36 34 33 34 35 35 34 33 33 32 32 33 33 33 33 33 34 35 34 34 35 35 36 36
34 34 35 35 34 34 34 34 34 34 34 33 33 34 35 35 35 36 35 35 34 34 34 35 35 35 35 34 34 34 34 35 35 35 35 35 36 36 37 37 37 37 38
34 34 35 36 36 34 33 33 34 34 34 34 34 34 34 35 35 36 36 35 34 34 34 35 35 35 35 35 35 35 35 36 37 38 37 37 37 38 38 39 39 39 40
Wind_Direction
247 245 246 247 246 245 246 246 244 240 236 233 233 236 236 237 239 242 245 246 242 241 241 235 238 237 236 234 234 235 239 246 254 267 283 301 308 314 319 322 326 331 335
247 244 246 246 246 244 245 246 243 241 240 239 237 238 239 239 240 243 244 245 244 243 245 251 238 241 244 243 242 243 245 251 256 266 278 293 303 308 311 311 316 321 324
248 247 246 246 245 244 244 245 244 243 243 242 241 241 242 242 242 241 243 245 246 245 246 247 244 246 249 249 250 252 253 254 259 266 275 286 295 302 304 305 308 312 317
250 249 246 246 245 245 245 245 246 245 245 245 244 244 244 245 246 244 244 246 248 249 250 251 253 251 250 251 255 257 257 255 258 265 273 282 290 295 300 303 306 309 310
250 249 247 245 244 245 245 245 246 246 246 246 246 247 247 247 247 247 246 247 249 250 251 253 255 252 251 253 255 257 256 258 261 265 272 277 283 288 291 297 302 308 308
249 249 247 245 245 246 247 247 247 247 247 247 247 248 248 248 248 247 246 247 249 251 251 253 254 251 250 252 254 256 257 260 264 266 270 274 276 280 286 293 299 301 303
248 248 247 246 246 246 247 248 247 247 247 246 246 248 248 248 248 247 247 246 248 250 251 252 253 250 250 252 254 256 258 260 264 266 270 273 274 277 283 289 293 296 299
248 248 248 247 247 247 247 247 247 247 247 246 246 247 249 248 248 247 246 247 248 250 252 252 252 250 249 251 254 254 257 259 262 265 269 271 273 275 279 284 288 292 296
249 248 247 246 247 247 247 246 246 246 247 247 246 246 247 248 248 248 247 248 250 251 252 254 252 249 249 250 251 253 255 259 263 265 269 271 271 272 276 280 284 288 291
250 248 247 247 247 247 247 247 247 247 246 246 246 245 245 245 247 249 249 251 251 251 252 254 252 250 249 249 250 252 255 258 263 267 269 270 271 273 276 279 282 285 289
251 249 247 247 247 247 248 247 247 246 246 245 244 243 243 244 246 248 250 252 251 250 252 253 251 251 250 249 250 252 254 257 262 266 269 269 270 273 277 280 282 284 287
252 250 247 246 245 246 247 246 245 245 244 243 242 242 242 243 244 246 248 250 250 251 251 251 251 250 249 248 250 252 254 258 261 266 268 269 270 273 277 281 282 283 286
252 251 247 244 244 245 246 245 244 244 243 242 242 241 241 242 244 246 247 249 250 250 249 249 249 249 249 248 249 252 255 259 261 265 268 270 271 274 276 280 281 282 284
250 248 246 244 243 243 244 244 243 242 241 241 242 241 240 241 242 244 246 248 249 249 248 248 248 249 250 249 250 251 254 258 263 265 268 270 271 271 274 278 280 282 284
249 248 246 243 242 240 242 243 243 241 241 240 241 241 240 239 241 243 244 245 247 247 247 247 248 250 250 250 250 251 253 258 263 265 267 269 270 271 273 277 279 281 284
248 248 247 244 242 240 241 243 243 242 242 240 240 241 239 238 240 241 241 242 244 245 246 246 248 251 253 251 251 251 253 257 262 266 268 269 270 271 272 274 279 281 283
248 247 247 245 242 240 240 242 243 243 242 241 240 240 239 237 237 239 239 240 241 243 244 246 249 251 252 252 251 251 253 257 261 263 268 269 270 271 271 273 279 280 282
247 246 246 244 242 241 241 243 243 244 242 240 237 237 236 235 236 239 238 238 239 242 244 246 248 252 254 253 253 253 254 258 260 263 267 269 269 269 270 272 277 280 280
246 245 244 244 243 242 242 243 243 242 241 240 237 235 234 234 237 239 238 237 238 242 245 246 247 250 253 253 253 252 255 259 261 264 267 268 268 269 271 274 277 279 279
245 245 244 243 242 242 243 244 243 242 240 240 239 236 235 236 238 237 237 237 238 242 245 246 247 250 253 252 253 253 255 258 261 263 266 268 269 271 272 275 277 278 279
246 245 245 244 243 242 244 244 243 242 242 241 238 235 235 236 237 237 238 237 239 241 243 245 248 251 252 254 254 253 256 259 260 263 265 267 269 271 272 275 277 278 279
244 245 244 243 244 242 243 244 243 242 241 238 235 234 235 236 237 238 238 237 239 241 242 246 250 252 252 255 255 256 258 259 260 263 265 267 270 272 274 274 276 277 279
243 244 241 241 241 241 242 243 243 242 241 239 237 236 237 238 238 238 237 236 238 242 244 248 251 252 253 255 257 259 258 258 260 262 265 268 269 273 274 275 275 276 278
244 243 241 240 240 242 242 243 242 243 242 240 237 238 239 239 238 237 236 237 239 242 245 247 250 251 253 255 258 260 260 259 260 262 265 268 269 272 273 275 276 277 277
244 244 241 240 239 241 243 243 243 244 243 243 241 239 239 239 237 236 237 238 239 243 246 247 250 253 254 256 258 260 260 261 262 263 265 268 270 272 274 275 276 277 277
245 245 241 239 239 241 241 241 242 243 243 244 242 240 239 238 238 239 240 240 241 244 247 249 252 254 256 257 259 261 262 262 264 265 265 267 269 272 275 275 276 277 276
Height
5843 5844 5845 5846 5847 5848 5850 5851 5852 5853 5854 5855 5856 5858 5859 5860 5861 5862 5863 5864 5865 5866 5867 5867 5868 5869 5870 5871 5871 5872 5873 5873 5874 5874 5874 5875 5875 5875 5875 5876 5876 5876 5876
5840 5841 5842 5843 5845 5846 5847 5849 5850 5851 5852 5854 5855 5856 5857 5858 5859 5860 5862 5863 5864 5864 5865 5866 5867 5868 5869 5870 5870 5871 5872 5872 5873 5874 5874 5874 5874 5875 5875 5875 5875 5875 5875
5837 5838 5839 5841 5842 5843 5845 5846 5847 5849 5850 5852 5853 5854 5855 5857 5858 5859 5860 5861 5862 5863 5864 5865 5866 5867 5868 5869 5869 5870 5871 5871 5872 5873 5873 5873 5874 5874 5874 5874 5874 5874 5874
5833 5834 5836 5837 5839 5840 5842 5843 5845 5846 5848 5849 5850 5852 5853 5854 5856 5857 5858 5860 5861 5862 5863 5864 5865 5866 5866 5867 5868 5869 5869 5870 5871 5871 5872 5872 5873 5873 5873 5873 5873 5873 5873
5829 5830 5832 5834 5835 5837 5838 5840 5841 5843 5845 5846 5848 5849 5850 5852 5853 5855 5856 5858 5859 5860 5861 5862 5863 5864 5865 5865 5866 5867 5868 5869 5869 5870 5870 5871 5871 5872 5872 5872 5872 5872 5872
5824 5826 5827 5829 5831 5833 5834 5836 5838 5839 5841 5843 5844 5846 5847 5849 5850 5852 5853 5855 5856 5858 5859 5860 5861 5862 5863 5864 5865 5866 5866 5867 5868 5868 5869 5869 5870 5870 5870 5871 5871 5871 5871
5819 5821 5823 5824 5826 5828 5830 5832 5834 5835 5837 5839 5841 5842 5844 5846 5847 5849 5850 5852 5853 5855 5856 5857 5858 5860 5861 5862 5862 5864 5865 5865 5866 5867 5867 5867 5868 5868 5869 5869 5869 5869 5869
5814 5815 5817 5819 5821 5823 5825 5827 5829 5831 5832 5834 5836 5838 5840 5842 5844 5845 5847 5849 5851 5852 5853 5855 5856 5857 5858 5859 5860 5861 5862 5863 5864 5864 5865 5865 5866 5866 5867 5867 5867 5867 5867
5807 5809 5811 5813 5815 5817 5819 5821 5823 5825 5827 5830 5832 5834 5836 5838 5840 5842 5844 5846 5847 5849 5850 5851 5853 5854 5855 5857 5858 5859 5860 5861 5862 5862 5863 5863 5863 5864 5864 5865 5865 5865 5865
5800 5802 5804 5807 5809 5811 5813 5815 5817 5819 5822 5824 5826 5829 5831 5833 5835 5838 5840 5842 5844 5845 5847 5848 5849 5851 5852 5854 5855 5856 5857 5858 5859 5860 5860 5860 5861 5861 5862 5862 5862 5863 5863
5792 5795 5797 5799 5802 5804 5807 5809 5811 5813 5815 5818 5820 5823 5826 5828 5831 5833 5835 5838 5839 5841 5843 5845 5846 5848 5849 5851 5852 5853 5854 5855 5856 5857 5857 5858 5858 5859 5859 5859 5860 5860 5860
5785 5787 5789 5792 5794 5796 5799 5802 5804 5806 5809 5811 5814 5817 5820 5823 5826 5828 5831 5833 5835 5837 5839 5840 5842 5844 5846 5847 5848 5850 5851 5852 5853 5853 5854 5855 5855 5856 5856 5856 5856 5857 5857
5777 5779 5781 5783 5786 5788 5791 5794 5797 5800 5802 5805 5808 5811 5814 5817 5820 5823 5825 5828 5830 5832 5834 5836 5838 5840 5842 5843 5845 5846 5847 5848 5849 5850 5850 5851 5852 5852 5853 5853 5853 5853 5853
5769 5771 5773 5776 5778 5781 5784 5787 5789 5793 5796 5799 5801 5804 5807 5811 5814 5817 5820 5823 5825 5827 5829 5832 5834 5836 5837 5839 5840 5842 5843 5844 5845 5846 5846 5847 5848 5848 5849 5849 5849 5849 5849
5761 5763 5765 5768 5771 5773 5776 5780 5783 5786 5788 5791 5794 5797 5801 5804 5808 5811 5814 5817 5819 5822 5824 5827 5829 5831 5833 5834 5836 5837 5838 5839 5840 5841 5842 5843 5843 5844 5844 5844 5845 5845 5845
5754 5756 5758 5760 5763 5766 5769 5772 5776 5779 5781 5784 5787 5790 5793 5797 5800 5803 5807 5810 5813 5816 5819 5821 5824 5826 5827 5829 5830 5832 5833 5835 5835 5836 5837 5838 5839 5839 5840 5840 5840 5840 5840
5746 5748 5750 5753 5756 5759 5762 5765 5768 5771 5774 5776 5779 5782 5785 5789 5793 5796 5800 5804 5807 5810 5813 5815 5818 5820 5822 5823 5825 5826 5828 5829 5830 5832 5832 5833 5834 5834 5835 5835 5835 5835 5835
5738 5741 5743 5746 5749 5752 5754 5757 5760 5763 5766 5768 5771 5774 5778 5782 5786 5790 5794 5797 5801 5804 5806 5809 5812 5814 5816 5817 5819 5821 5822 5824 5825 5826 5827 5827 5828 5829 5830 5830 5830 5830 5830
5730 5732 5736 5739 5741 5744 5747 5750 5752 5755 5757 5760 5763 5767 5771 5774 5778 5782 5786 5790 5794 5797 5800 5803 5805 5807 5809 5811 5813 5814 5816 5818 5819 5820 5821 5822 5822 5823 5824 5824 5824 5824 5824
5721 5724 5728 5730 5733 5737 5740 5742 5744 5747 5750 5753 5755 5759 5763 5767 5771 5775 5778 5783 5786 5790 5793 5796 5799 5801 5802 5804 5806 5808 5810 5812 5813 5814 5815 5816 5816 5817 5817 5818 5818 5818 5818
5714 5717 5720 5722 5725 5729 5732 5734 5737 5740 5743 5745 5748 5751 5755 5759 5763 5767 5771 5775 5779 5782 5785 5789 5792 5794 5795 5797 5799 5801 5803 5805 5806 5808 5809 5809 5810 5810 5811 5811 5811 5811 5811
5707 5710 5711 5715 5718 5721 5724 5727 5729 5732 5734 5737 5740 5743 5747 5751 5755 5759 5763 5767 5771 5774 5778 5782 5785 5787 5789 5790 5792 5794 5796 5798 5799 5801 5802 5803 5803 5803 5803 5803 5803 5803 5803
5700 5703 5705 5707 5710 5713 5716 5719 5721 5724 5727 5730 5733 5737 5740 5744 5748 5752 5756 5760 5764 5767 5771 5774 5777 5780 5782 5784 5785 5787 5789 5791 5792 5794 5794 5795 5796 5796 5796 5795 5796 5795 5795
5693 5695 5697 5700 5703 5706 5709 5712 5714 5717 5720 5723 5726 5730 5733 5736 5740 5744 5749 5752 5757 5760 5764 5767 5770 5772 5775 5776 5778 5780 5782 5783 5785 5786 5787 5787 5788 5788 5788 5788 5787 5787 5786
5685 5687 5690 5692 5695 5698 5702 5705 5707 5711 5714 5716 5719 5723 5726 5730 5734 5738 5742 5745 5749 5753 5756 5759 5762 5765 5767 5769 5771 5772 5773 5775 5777 5778 5779 5780 5780 5780 5779 5779 5779 5778 5777
5677 5679 5682 5685 5688 5692 5695 5698 5701 5704 5707 5710 5713 5717 5720 5724 5727 5731 5734 5738 5742 5746 5749 5752 5755 5757 5760 5761 5763 5764 5765 5767 5768 5769 5770 5771 5772 5771 5771 5770 5769 5769 5768